Weather History for PAWG - April, 2013

Change the Weather History Date:

Thursday, April 25, 2013

  Actual Average Record
Temperature  
Mean Temperature 44 °F -  
Max Temperature 46 °F 53 °F 71 °F (2003)
Min Temperature 42 °F 37 °F 31 °F (1955)
Degree Days  
Heating Degree Days 21    
Moisture  
Dew Point 40 °F    
Average Humidity 84    
Maximum Humidity 93    
Minimum Humidity 76    
Precipitation  
Precipitation 1.36 in - - ()
Sea Level Pressure  
Sea Level Pressure 29.74 in    
Wind  
Wind Speed 7 mph (ESE)    
Max Wind Speed 20 mph    
Max Gust Speed 25 mph    
Visibility 6 miles    
Events      
Averages and records for this station are not official NWS values.
T = Trace of Precipitation, MM = Missing Value Source: NWS Daily Summary

Daily Weather History Graph

Daily Weather History Graph

Search for Another Location

Airport or City:

Trip Planner

Search our weather history database for the weather conditions in past years. The results will help you decide how hot, cold, wet, or windy it might be!

Date:

Astronomy

Apr. 25, 2013 Rise Set
Actual Time 5:16 AM AKDT 8:19 PM AKDT
Civil Twilight 4:33 AM AKDT 9:03 PM AKDT
Nautical Twilight 3:34 AM AKDT 10:02 PM AKDT
Astronomical Twilight 2:12 AM AKDT 11:28 PM AKDT
Moon 8:48 PM AKDT (4/25) 5:04 AM AKDT (4/25)
Length of Visible Light 16h 30m
Length of Day
15h 02m
Full, 100% of the Moon is Illuminated
Apr 25
Full
May 2
Last Quarter
May 9
New
May 17
First Quarter
May 24
Full

Hourly Weather History & Observations

Time (AKDT) Temp. Windchill Dew Point Humidity Pressure Visibility Wind Dir Wind Speed Gust Speed Precip Events Conditions
12:16 AM 44.6 °F 40.2 °F 39.2 °F 81% 29.91 in 7.0 mi ESE 8.1 mph - 0.08 in   Overcast
12:36 AM 44.6 °F 40.7 °F 39.2 °F 81% 29.91 in 9.0 mi SE 6.9 mph - 0.14 in   Overcast
12:56 AM 44.6 °F 39.7 °F 39.2 °F 81% 29.90 in 9.0 mi East 9.2 mph - 0.19 in   Overcast
1:16 AM 44.6 °F 40.2 °F 39.2 °F 81% 29.89 in 9.0 mi ESE 8.1 mph - 0.04 in   Overcast
1:36 AM 44.6 °F 40.7 °F 39.2 °F 81% 29.88 in 10.0 mi ESE 6.9 mph - 0.05 in   Overcast
1:56 AM 44.6 °F 39.7 °F 39.2 °F 81% 29.88 in 10.0 mi ESE 9.2 mph - 0.05 in   Overcast
2:16 AM 44.6 °F 40.2 °F 39.2 °F 81% 29.87 in 10.0 mi ESE 8.1 mph - N/A   Overcast
2:36 AM 44.6 °F 40.2 °F 39.2 °F 81% 29.87 in 10.0 mi ESE 8.1 mph - N/A   Overcast
2:56 AM 44.6 °F 40.2 °F 39.2 °F 81% 29.86 in 10.0 mi SE 8.1 mph - N/A   Overcast
3:16 AM 44.6 °F 40.7 °F 39.2 °F 81% 29.85 in 10.0 mi ESE 6.9 mph - N/A   Overcast
3:36 AM 44.6 °F 42.2 °F 39.2 °F 81% 29.85 in 10.0 mi SE 4.6 mph - N/A   Overcast
3:56 AM 44.6 °F 43.1 °F 39.2 °F 81% 29.84 in 10.0 mi SE 3.5 mph - N/A   Overcast
4:16 AM 44.6 °F 40.7 °F 39.2 °F 81% 29.83 in 10.0 mi SSW 6.9 mph - N/A   Overcast
4:36 AM 44.6 °F - 39.2 °F 81% 29.82 in 10.0 mi Calm Calm - N/A   Overcast
4:56 AM 46.4 °F 43.5 °F 39.2 °F 76% 29.81 in 10.0 mi SSW 5.8 mph - N/A   Overcast
5:16 AM 46.4 °F - 39.2 °F 76% 29.80 in 10.0 mi Calm Calm - N/A   Overcast
5:36 AM 44.6 °F 40.7 °F 39.2 °F 81% 29.80 in 10.0 mi South 6.9 mph - N/A   Overcast
5:56 AM 44.6 °F 40.2 °F 37.4 °F 76% 29.80 in 10.0 mi SE 8.1 mph - 0.02 in   Overcast
6:16 AM 44.6 °F 41.4 °F 39.2 °F 81% 29.79 in 10.0 mi ESE 5.8 mph - 0.01 in   Overcast
6:36 AM 44.6 °F 38.4 °F 39.2 °F 81% 29.78 in 10.0 mi ESE 12.7 mph - 0.02 in   Overcast
6:56 AM 44.6 °F 40.2 °F 39.2 °F 81% 29.78 in 10.0 mi SE 8.1 mph - 0.04 in   Overcast
7:16 AM 44.6 °F 37.2 °F 37.4 °F 76% 29.76 in 5.0 mi East 17.3 mph 24.2 mph 0.02 in   Overcast
7:36 AM 42.8 °F 35.1 °F 37.4 °F 81% 29.76 in 5.0 mi East 16.1 mph 23.0 mph 0.03 in   Overcast
7:56 AM 42.8 °F 35.4 °F 37.4 °F 81% 29.75 in 5.0 mi East 15.0 mph 21.9 mph 0.04 in   Overcast
8:16 AM 42.8 °F 36.6 °F 37.4 °F 81% 29.75 in 5.0 mi SE 11.5 mph - 0.02 in   Overcast
8:36 AM 42.8 °F 36.6 °F 37.4 °F 81% 29.75 in 5.0 mi ESE 11.5 mph 17.3 mph 0.05 in   Overcast
8:56 AM 42.8 °F 36.6 °F 37.4 °F 81% 29.74 in 5.0 mi East 11.5 mph - 0.07 in   Overcast
9:16 AM 44.6 °F 39.7 °F 39.2 °F 81% 29.74 in 5.0 mi ESE 9.2 mph - 0.03 in   Overcast
9:36 AM 44.6 °F 38.8 °F 39.2 °F 81% 29.74 in 5.0 mi East 11.5 mph - 0.04 in   Overcast
9:56 AM 44.6 °F 39.7 °F 39.2 °F 81% 29.74 in 5.0 mi SE 9.2 mph - 0.07 in   Overcast
10:16 AM 44.6 °F 40.2 °F 39.2 °F 81% 29.75 in 5.0 mi East 8.1 mph - 0.04 in   Overcast
10:36 AM 44.6 °F 39.2 °F 39.2 °F 81% 29.75 in 5.0 mi East 10.4 mph - 0.07 in   Overcast
10:56 AM 44.6 °F 40.2 °F 39.2 °F 81% 29.75 in 5.0 mi East 8.1 mph - 0.08 in   Overcast
11:16 AM 44.6 °F 39.2 °F 39.2 °F 81% 29.74 in 5.0 mi ESE 10.4 mph - N/A   Overcast
11:36 AM 44.6 °F 39.2 °F 39.2 °F 81% 29.74 in 5.0 mi East 10.4 mph - N/A   Overcast
11:56 AM 44.6 °F 39.2 °F 41.0 °F 87% 29.74 in 5.0 mi East 10.4 mph - 0.03 in   Overcast
12:16 PM 44.6 °F 40.2 °F 39.2 °F 81% 29.73 in 5.0 mi East 8.1 mph - 0.11 in   Mostly Cloudy
12:36 PM 44.6 °F 40.2 °F 41.0 °F 87% 29.73 in 5.0 mi East 8.1 mph - 0.18 in   Overcast
12:56 PM 44.6 °F 40.7 °F 41.0 °F 87% 29.72 in 3.0 mi ESE 6.9 mph - 0.24 in   Overcast
1:16 PM 44.6 °F 42.2 °F 41.0 °F 87% 29.72 in 3.0 mi East 4.6 mph - 0.05 in   Overcast
1:36 PM 44.6 °F 42.2 °F 42.8 °F 93% 29.72 in 3.0 mi ESE 4.6 mph - 0.09 in   Overcast
1:56 PM 44.6 °F 42.2 °F 42.8 °F 93% 29.72 in 3.0 mi East 4.6 mph - 0.13 in   Overcast
2:16 PM 44.6 °F - 42.8 °F 93% 29.71 in 3.0 mi Calm Calm - 0.03 in   Overcast
2:36 PM 44.6 °F 43.1 °F 42.8 °F 93% 29.71 in 3.0 mi East 3.5 mph - 0.05 in   Overcast
2:56 PM 44.6 °F - 42.8 °F 93% 29.71 in 3.0 mi Calm Calm - 0.08 in   Overcast
3:16 PM 44.6 °F 43.1 °F 42.8 °F 93% 29.70 in 3.0 mi SE 3.5 mph - 0.03 in   Overcast
3:36 PM 44.6 °F - 42.8 °F 93% 29.70 in 3.0 mi Calm Calm - 0.06 in   Overcast
3:56 PM 44.6 °F - 42.8 °F 93% 29.70 in 4.0 mi Calm Calm - 0.09 in   Mostly Cloudy
4:16 PM 44.6 °F - 42.8 °F 93% 29.69 in 4.0 mi Calm Calm - 0.02 in   Mostly Cloudy
4:36 PM 44.6 °F - 42.8 °F 93% 29.68 in 4.0 mi Calm Calm - 0.03 in   Mostly Cloudy
4:56 PM 44.6 °F 41.4 °F 42.8 °F 93% 29.67 in 4.0 mi ESE 5.8 mph - 0.06 in   Mostly Cloudy
5:16 PM 44.6 °F 42.2 °F 42.8 °F 93% 29.67 in 4.0 mi SE 4.6 mph - 0.05 in   Mostly Cloudy
5:36 PM 44.6 °F 42.2 °F 42.8 °F 93% 29.67 in 4.0 mi SE 4.6 mph - 0.09 in   Mostly Cloudy
5:56 PM 44.6 °F - 42.8 °F 93% 29.67 in 4.0 mi Calm Calm - 0.12 in   Overcast
6:16 PM 44.6 °F 42.2 °F 41.0 °F 87% 29.67 in 4.0 mi SSW 4.6 mph - 0.02 in   Overcast
6:36 PM 44.6 °F 42.2 °F 42.8 °F 93% 29.68 in 4.0 mi SE 4.6 mph - 0.02 in   Overcast
6:56 PM 44.6 °F 41.4 °F 42.8 °F 93% 29.68 in 4.0 mi ESE 5.8 mph - 0.02 in   Overcast
7:16 PM 44.6 °F 42.2 °F 41.0 °F 87% 29.67 in 4.0 mi SE 4.6 mph - 0.01 in   Overcast
7:36 PM 44.6 °F 41.4 °F 41.0 °F 87% 29.66 in 4.0 mi SE 5.8 mph - 0.01 in   Overcast
7:56 PM 44.6 °F 40.2 °F 41.0 °F 87% 29.65 in 4.0 mi ESE 8.1 mph - 0.01 in   Overcast
8:16 PM 44.6 °F 40.2 °F 39.2 °F 81% 29.65 in 4.0 mi ESE 8.1 mph - N/A   Overcast
8:36 PM 44.6 °F 40.7 °F 39.2 °F 81% 29.65 in 4.0 mi SE 6.9 mph - 0.01 in   Overcast
8:56 PM 44.6 °F - 39.2 °F 81% 29.65 in 4.0 mi Calm Calm - 0.01 in   Overcast
9:16 PM 44.6 °F 42.2 °F 39.2 °F 81% 29.65 in 4.0 mi SE 4.6 mph - N/A   Overcast
9:36 PM 44.6 °F 42.2 °F 39.2 °F 81% 29.65 in 4.0 mi South 4.6 mph - N/A   Overcast
9:56 PM 44.6 °F 42.2 °F 39.2 °F 81% 29.64 in 5.0 mi South 4.6 mph - N/A   Overcast
10:16 PM 44.6 °F 42.2 °F 39.2 °F 81% 29.65 in 5.0 mi SSE 4.6 mph - N/A   Overcast
10:36 PM 42.8 °F 36.6 °F 37.4 °F 81% 29.65 in 5.0 mi SE 11.5 mph - 0.01 in   Overcast
10:56 PM 42.8 °F 35.1 °F 37.4 °F 81% 29.64 in 5.0 mi ESE 16.1 mph 19.6 mph 0.01 in   Overcast
11:16 PM 42.8 °F 34.3 °F 35.6 °F 76% 29.62 in 7.0 mi ESE 19.6 mph 25.3 mph N/A   Overcast
11:36 PM 42.8 °F 34.8 °F 37.4 °F 81% 29.61 in 7.0 mi East 17.3 mph 24.2 mph N/A   Overcast
11:56 PM 42.8 °F 36.2 °F 37.4 °F 81% 29.62 in 8.0 mi East 12.7 mph - N/A   Overcast